Location: Unspecified
(41.5516°N, 88.1098°W)
Time: 02:38:45
(UTC-06:00)

Okean 3 - Visible Passes

Search period start: 01 February 2015 00:00
Search period end: 11 February 2015 00:00
Orbit: 582 x 606 km, 82.5° (Epoch: 31 January)

Date Brightness Start Highest point End Pass type
(mag) Time Alt. Az. Time Alt. Az. Time Alt. Az.
01 Feb 6.4 06:36:24 10° SE 06:39:32 20° E 06:42:47 10° NE visible
01 Feb 3.5 18:17:38 10° N 18:21:53 55° E 18:26:05 10° SSE visible
01 Feb 6.8 19:57:01 10° WNW 19:58:47 12° W 20:00:20 10° WSW visible
02 Feb 3.4 18:27:11 10° N 18:31:32 87° E 18:35:48 10° S visible
03 Feb 4.1 18:36:53 10° NNW 18:41:08 59° W 18:45:19 10° S visible
04 Feb 5.1 18:46:42 10° NNW 18:50:41 37° W 18:54:35 10° SSW visible
05 Feb 6.0 18:56:42 10° NW 19:00:12 24° W 19:03:35 10° SW visible
06 Feb 6.7 05:47:55 10° ESE 05:50:26 16° E 05:53:08 10° NE visible
06 Feb 6.7 19:07:02 10° NW 19:09:41 16° W 19:12:09 10° WSW visible
07 Feb 6.2 05:56:30 10° SE 05:59:56 24° E 06:03:27 10° NE visible
07 Feb 3.5 17:38:02 10° N 17:42:19 66° E 17:46:32 10° SSE visible
08 Feb 5.3 06:05:30 10° SSE 06:09:26 36° E 06:13:27 10° NNE visible
08 Feb 3.7 17:47:37 10° N 17:51:56 79° W 17:56:09 10° S visible
09 Feb 4.3 06:14:45 10° S 06:18:59 58° E 06:23:16 10° NNE visible
09 Feb 4.6 17:57:20 10° NNW 18:01:29 49° W 18:05:34 10° SSW visible
10 Feb 3.6 06:24:14 10° S 06:28:34 89° W 06:32:56 10° N visible
10 Feb 5.6 18:07:13 10° NNW 18:11:01 31° W 18:14:44 10° SSW visible
